User: anonymous   Login
Location: Unspecified
(0.0000°N, 0.0000°E)
Time: 01:26:02
(UTC+00:00)
Language:

HO-68 - Orbit

View from above orbital plane
View from above orbital plane
View from above satellite
View from above satellite

Ground track
Ground track

The orbit data is extracted from the following two-line orbital elements,

1 36122U 09072B   14297.17871598 -.00000043  00000-0  54861-8 0   611
2 36122 100.2325 345.0358 0006878 303.1578 103.9028 13.16319761233406
Epoch (UTC): 24 October 2014 04:17:21
Eccentricity: 0.0006878
inclination: 100.2325°
perigee height: 1193 km
apogee height: 1204 km
right ascension of ascending node: 345.0358°
argument of perigee: 303.1578°
revolutions per day: 13.16319761
mean anomaly at epoch: 103.9028°
orbit number at epoch: 23340

The dashed part of the orbit path shows where the satellite is in the earth's shadow,  

DLR